Home > Time Zones > World Clock > Weather > Yemen > Aden > Past weeks

Flag for Yemen Weather past 2 weeks in Aden, Yemen

Now
81 °F

Passing clouds.


Feels Like: 81 °F
Forecast: 74 / 80 °F
Wind: 12 mph from Southeast

Location: Aden

Current Time: Dec 21, 2014 at 7:02:16 PM

Latest Report: Dec 21, 2014 at 4:00 PM


Visibility: N/A

Pressure: 29.92 "Hg

Humidity: 48%

Dew point: 59 °F

Location of AdenLocation

Historic Weather in Aden — Graph

°F

Aden temperature yesterday

Maximum temperature yesterday: 82 °F (at 11:00 AM)
Minimum temperature yesterday: 77 °F (at 5:00 AM)
Average temperature yesterday: 79 °F

Past Weeks' High & Low Weather Summary

 TemperatureHumidityPressure
High84 °F (Dec 15, 8:00 AM)79% (Dec 18, 3:00 AM)30.42 "Hg (Dec 18, 3:00 AM)
Low75 °F (Dec 21, 1:00 AM)45% (Dec 21, 1:00 PM)29.92 "Hg (Dec 21, 3:00 PM)
Average80 °F63%30.03 "Hg
* Reported Dec 14 9:00 AM — Dec 21 4:00 PM, Aden, Weather by CustomWeather, © 2014

Note: Actual official high and low records may vary slightly from our data, if they occured in-between our weather recording intervals... More about our weather records

Advertising

Aden weather history for previous 24 hours

 ConditionsComfort  
Time TempWeatherWind HumidityBarometerVisibility
4:00 PM
Dec 21
81 °FPassing clouds.12 mph48%29.92 "HgN/A
3:00 PM82 °FPassing clouds.16 mph51%29.92 "HgN/A
2:00 PM82 °FPassing clouds.14 mph51%29.95 "HgN/A
1:00 PM84 °FPassing clouds.14 mph45%29.98 "HgN/A
12:00 PM82 °FPassing clouds.13 mph58%30.01 "HgN/A
11:00 AM82 °FScattered clouds.12 mph58%30.04 "HgN/A
7:00 AM77 °FScattered clouds.8 mph61%30.01 "HgN/A
6:00 AM77 °FPassing clouds.7 mph61%29.98 "HgN/A
5:00 AM75 °FPassing clouds.6 mph61%29.98 "HgN/A
4:00 AM75 °FPassing clouds.6 mph61%29.98 "HgN/A
3:00 AM75 °FPassing clouds.5 mph65%29.98 "HgN/A
2:00 AM75 °FPassing clouds.3 mph65%30.01 "HgN/A
1:00 AM75 °FPassing clouds.6 mph65%30.01 "HgN/A
12:00 AM77 °FPassing clouds.3 mph61%30.04 "HgN/A
11:00 PM
Dec 20
77 °FPassing clouds.7 mph57%30.07 "HgN/A
10:00 PM77 °FPassing clouds.7 mph57%30.07 "HgN/A
9:00 PM79 °FPassing clouds.7 mph58%30.07 "HgN/A
8:00 PM79 °FPassing clouds.9 mph58%30.04 "HgN/A
7:00 PM77 °FPassing clouds.20 mph74%29.95 "HgN/A
Weather by CustomWeather, © 2014

See weather overviewHow to use our weather pages